Weather History for HKMO - February, 2013

Change the Weather History Date:

Wednesday, February 13, 2013

  Actual Average Record
Temperature  
Mean Temperature 84 °F -  
Max Temperature 91 °F 93 °F 93 °F (2011)
Min Temperature 78 °F 72 °F 35 °F (2007)
Cooling Degree Days 20    
Growing Degree Days 34 (Base 50)    
Moisture  
Dew Point 72 °F    
Average Humidity 71    
Maximum Humidity 83    
Minimum Humidity 42    
Precipitation  
Precipitation 0.00 in 0.04 in - ()
Sea Level Pressure  
Sea Level Pressure 29.79 in    
Wind  
Wind Speed 4 mph ()    
Max Wind Speed 18 mph    
Max Gust Speed -    
Visibility 7.7 miles    
Events      
Averages and records for this station are not official NWS values.
T = Trace of Precipitation, MM = Missing Value Source: Averaged Metar Reports

Daily Weather History Graph

Daily Weather History Graph

Search for Another Location

Airport or City:

Trip Planner

Search our weather history database for the weather conditions in past years. The results will help you decide how hot, cold, wet, or windy it might be!

Date:

Astronomy

Feb. 13, 2013 Rise Set
Actual Time 6:28 AM EAT 6:42 PM EAT
Civil Twilight 6:07 AM EAT 7:04 PM EAT
Nautical Twilight 5:42 AM EAT 7:29 PM EAT
Astronomical Twilight 5:17 AM EAT 7:53 PM EAT
Moon 8:51 AM EAT (2/13) 9:10 PM EAT (2/13)
Length of Visible Light 12h 57m
Length of Day
12h 14m
Waxing Crescent, 11% of the Moon is Illuminated
Feb 13
Waxing Crescent
Feb 17
First Quarter
Feb 25
Full
Mar 5
Last Quarter
Mar 11
New

Hourly Weather History & Observations

Time (EAT) Temp. Heat Index Dew Point Humidity Pressure Visibility Wind Dir Wind Speed Gust Speed Precip Events Conditions
12:00 AM 78.8 °F - 73.4 °F 83% 29.80 in 6.2 mi Calm Calm - N/A   Partly Cloudy
1:00 AM 78.8 °F - 73.4 °F 83% 29.80 in 6.2 mi Calm Calm - N/A   Scattered Clouds
2:00 AM 78.8 °F - 73.4 °F 83% 29.80 in 6.2 mi Calm Calm - N/A   Scattered Clouds
3:00 AM 79 °F - 74 °F 79% 29.79 in 19 mi Calm Calm - -   Mostly Cloudy
3:00 AM 78.8 °F - 73.4 °F 83% 29.77 in 6.2 mi Calm Calm - N/A   Mostly Cloudy
4:00 AM 78.8 °F - 73.4 °F 83% 29.80 in 6.2 mi Calm Calm - N/A   Mostly Cloudy
5:00 AM 78.8 °F - 73.4 °F 83% 29.80 in 6.2 mi Calm Calm - N/A   Partly Cloudy
6:00 AM 78.8 °F - 73.4 °F 83% 29.80 in 6.2 mi Calm Calm - N/A   Mostly Cloudy
7:00 AM 78.8 °F - 73.4 °F 83% 29.83 in 6.2 mi Calm Calm - N/A   Mostly Cloudy
8:00 AM 80.6 °F 85.4 °F 73.4 °F 79% 29.86 in 6.2 mi North 4.6 mph - N/A   Mostly Cloudy
10:00 AM 87.8 °F 92.6 °F 69.8 °F 55% 29.86 in 6.2 mi NNE 8.1 mph - N/A   Mostly Cloudy
11:00 AM 87.8 °F 92.6 °F 69.8 °F 55% 29.86 in 6.2 mi East 3.5 mph - N/A   Mostly Cloudy
12:00 PM 87.8 °F 93.8 °F 71.6 °F 58% 29.83 in 6.2 mi East 15.0 mph - N/A   Mostly Cloudy
12:30 PM 89.6 °F 93.4 °F 68.0 °F 49% 29.80 in 6.2 mi SE 15.0 mph - N/A   Mostly Cloudy
2:00 PM 89.6 °F 92.2 °F 66.2 °F 46% 29.77 in 6.2 mi ESE 18.4 mph - N/A   Partly Cloudy
3:00 PM 89 °F - 69 °F 42% 29.75 in 19 mi East 18.4 mph - -   Scattered Clouds
3:00 PM 89.6 °F 94.7 °F 69.8 °F 52% 29.74 in 6.2 mi East 18.4 mph - N/A   Partly Cloudy
4:00 PM 87.8 °F 93.8 °F 71.6 °F 58% 29.71 in 6.2 mi ENE 18.4 mph - N/A   Partly Cloudy
6:00 PM 84.2 °F 90.9 °F 73.4 °F 70% 29.71 in 6.2 mi ENE 11.5 mph - N/A   Partly Cloudy
7:00 PM 80.6 °F 85.4 °F 73.4 °F 79% 29.74 in 6.2 mi East 12.7 mph - N/A   Scattered Clouds
8:00 PM 80.6 °F 85.4 °F 73.4 °F 79% 29.77 in 6.2 mi East 13.8 mph - N/A   Partly Cloudy
9:00 PM 81 °F - 74 °F 74% 29.79 in 19 mi ENE 6.9 mph - -   Scattered Clouds
9:00 PM 80.6 °F 85.4 °F 73.4 °F 79% 29.80 in 6.2 mi ENE 6.9 mph - N/A   Partly Cloudy
10:00 PM 80.6 °F 85.4 °F 73.4 °F 79% 29.83 in 6.2 mi NE 4.6 mph - N/A   Partly Cloudy
11:00 PM 80.6 °F 85.4 °F 73.4 °F 79% 29.83 in 6.2 mi NNE 3.5 mph - N/A   Partly Cloudy